Total_Precipitation_Accumulation
0.11 0.11 0.12 0.12 0.12 0.14 0.14 0.16 0.17 0.16 0.16 0.16 0.17 0.18 0.21 0.23 0.21 0.17 0.14 0.12 0.08 0.08 0.15 0.30 0.55 0.81 1.02 1.13 1.14 1.00 0.92 0.80 0.64 0.55 0.52 0.60 0.63 0.62 0.65 0.75 0.72 0.61 0.58
0.04 0.03 0.03 0.03 0.02 0.02 0.02 0.03 0.04 0.05 0.06 0.08 0.09 0.11 0.13 0.16 0.18 0.19 0.19 0.21 0.16 0.13 0.14 0.20 0.34 0.57 0.88 1.10 1.21 1.19 1.06 0.98 0.81 0.64 0.56 0.56 0.62 0.62 0.62 0.68 0.76 0.72 0.61
0.02 0.02 0.02 0.01 0.01 0.00 0.00 0.00 0.01 0.01 0.01 0.02 0.03 0.05 0.07 0.08 0.12 0.15 0.18 0.22 0.23 0.20 0.17 0.20 0.27 0.42 0.71 1.01 1.20 1.34 1.26 1.12 1.01 0.87 0.68 0.57 0.59 0.64 0.62 0.64 0.72 0.79 0.76
0.01 0.01 0.01 0.01 0.01 0.01 0.01 0.01 0.01 0.01 0.01 0.02 0.02 0.03 0.06 0.07 0.06 0.09 0.14 0.16 0.19 0.21 0.20 0.20 0.28 0.42 0.60 0.86 1.13 1.39 1.50 1.34 1.25 1.19 1.00 0.77 0.62 0.64 0.66 0.65 0.70 0.79 0.87
0.01 0.01 0.02 0.01 0.01 0.02 0.02 0.03 0.03 0.02 0.02 0.02 0.02 0.02 0.02 0.04 0.05 0.08 0.11 0.14 0.17 0.18 0.20 0.21 0.25 0.34 0.47 0.70 1.04 1.39 1.73 1.76 1.59 1.46 1.31 1.12 0.89 0.71 0.70 0.68 0.71 0.80 0.89
0.01 0.01 0.02 0.01 0.01 0.01 0.02 0.02 0.02 0.02 0.02 0.02 0.02 0.01 0.00 0.01 0.02 0.05 0.07 0.12 0.16 0.17 0.19 0.24 0.27 0.25 0.27 0.39 0.63 1.01 1.38 1.73 1.80 1.72 1.61 1.43 1.21 0.99 0.84 0.78 0.76 0.84 0.95
0.01 0.01 0.01 0.01 0.01 0.01 0.02 0.02 0.02 0.03 0.02 0.02 0.02 0.01 0.00 0.00 0.01 0.02 0.07 0.12 0.17 0.23 0.29 0.34 0.40 0.38 0.30 0.29 0.32 0.46 0.80 1.29 1.66 1.83 1.83 1.78 1.55 1.29 1.08 0.93 0.88 0.92 0.99
0.01 0.01 0.01 0.01 0.01 0.01 0.01 0.01 0.02 0.05 0.04 0.03 0.07 0.11 0.05 0.01 0.00 0.01 0.04 0.09 0.17 0.27 0.39 0.44 0.49 0.50 0.46 0.36 0.25 0.25 0.37 0.73 1.28 1.75 1.90 1.91 1.95 1.74 1.39 1.16 1.03 1.04 1.11
0.01 0.00 0.01 0.01 0.01 0.01 0.01 0.01 0.02 0.04 0.06 0.04 0.07 0.24 0.32 0.16 0.05 0.00 0.01 0.04 0.08 0.12 0.20 0.29 0.36 0.41 0.47 0.48 0.39 0.30 0.28 0.43 0.79 1.40 1.90 2.01 2.05 2.14 1.91 1.48 1.23 1.14 1.17
0.01 0.01 0.01 0.00 0.01 0.01 0.02 0.02 0.03 0.05 0.11 0.12 0.08 0.12 0.22 0.27 0.29 0.13 0.01 0.02 0.02 0.04 0.06 0.10 0.16 0.23 0.34 0.44 0.48 0.43 0.36 0.37 0.57 0.94 1.58 2.11 2.16 2.25 2.36 2.02 1.59 1.33 1.25
0.01 0.01 0.01 0.01 0.01 0.01 0.02 0.03 0.04 0.06 0.12 0.17 0.17 0.15 0.14 0.13 0.19 0.28 0.12 0.02 0.03 0.03 0.03 0.05 0.07 0.10 0.16 0.27 0.36 0.43 0.45 0.40 0.50 0.71 1.07 1.71 2.30 2.47 2.57 2.45 2.00 1.58 1.35
0.01 0.01 0.01 0.01 0.01 0.02 0.03 0.04 0.06 0.09 0.11 0.15 0.18 0.20 0.24 0.26 0.20 0.26 0.22 0.07 0.03 0.03 0.04 0.05 0.06 0.07 0.10 0.16 0.23 0.35 0.43 0.44 0.45 0.56 0.69 1.07 1.81 2.47 2.69 2.59 2.29 1.90 1.54
0.01 0.01 0.01 0.02 0.02 0.03 0.05 0.07 0.10 0.11 0.13 0.17 0.20 0.21 0.22 0.22 0.21 0.26 0.30 0.17 0.07 0.02 0.03 0.05 0.06 0.09 0.11 0.14 0.18 0.25 0.32 0.39 0.45 0.50 0.51 0.58 0.95 1.78 2.56 2.80 2.56 2.20 1.89
0.02 0.01 0.01 0.02 0.03 0.05 0.08 0.11 0.13 0.14 0.16 0.19 0.19 0.21 0.23 0.19 0.21 0.26 0.32 0.36 0.28 0.09 0.03 0.04 0.05 0.08 0.11 0.13 0.15 0.19 0.20 0.26 0.35 0.42 0.44 0.46 0.54 0.89 1.68 2.61 3.13 2.82 2.31
0.02 0.01 0.02 0.03 0.05 0.08 0.11 0.13 0.16 0.18 0.21 0.23 0.24 0.24 0.27 0.25 0.25 0.26 0.28 0.38 0.54 0.38 0.10 0.03 0.05 0.06 0.09 0.13 0.17 0.18 0.17 0.20 0.27 0.35 0.38 0.41 0.47 0.57 0.89 1.56 2.53 3.21 3.09
0.02 0.02 0.04 0.07 0.11 0.15 0.17 0.19 0.20 0.21 0.25 0.26 0.29 0.30 0.31 0.31 0.31 0.31 0.32 0.33 0.41 0.49 0.30 0.06 0.06 0.07 0.10 0.12 0.17 0.18 0.19 0.21 0.23 0.28 0.33 0.36 0.41 0.51 0.66 0.97 1.56 2.48 3.08
0.03 0.04 0.07 0.10 0.15 0.21 0.25 0.29 0.29 0.31 0.31 0.29 0.30 0.34 0.36 0.35 0.36 0.33 0.35 0.36 0.35 0.40 0.40 0.10 0.04 0.07 0.13 0.16 0.18 0.18 0.19 0.18 0.16 0.20 0.27 0.34 0.40 0.48 0.60 0.78 1.06 1.65 2.52
0.06 0.08 0.12 0.17 0.21 0.25 0.29 0.37 0.43 0.45 0.48 0.47 0.45 0.45 0.45 0.46 0.48 0.46 0.46 0.42 0.37 0.35 0.41 0.27 0.08 0.06 0.13 0.20 0.26 0.26 0.22 0.19 0.16 0.16 0.21 0.29 0.36 0.43 0.55 0.68 0.86 1.15 1.74
0.10 0.15 0.22 0.30 0.35 0.37 0.38 0.40 0.51 0.64 0.71 0.74 0.74 0.73 0.70 0.67 0.68 0.65 0.63 0.56 0.45 0.36 0.36 0.34 0.18 0.10 0.14 0.23 0.34 0.35 0.30 0.23 0.17 0.18 0.21 0.25 0.31 0.37 0.45 0.57 0.71 0.88 1.15
0.21 0.28 0.36 0.46 0.53 0.62 0.74 0.75 0.73 0.69 0.70 0.79 0.84 0.87 0.92 0.95 0.95 0.90 0.88 0.72 0.57 0.49 0.43 0.42 0.32 0.21 0.18 0.24 0.43 0.48 0.43 0.34 0.25 0.20 0.23 0.25 0.30 0.36 0.38 0.41 0.46 0.61 0.87
0.28 0.36 0.40 0.42 0.45 0.67 1.12 1.28 1.00 0.64 0.54 0.56 0.59 0.63 0.74 0.91 1.04 1.11 1.15 1.00 0.86 0.81 0.70 0.62 0.51 0.39 0.31 0.36 0.51 0.57 0.62 0.55 0.46 0.35 0.28 0.23 0.24 0.26 0.27 0.31 0.39 0.50 0.69
0.20 0.31 0.37 0.34 0.34 0.55 1.01 1.16 0.78 0.47 0.40 0.40 0.40 0.41 0.45 0.61 0.73 0.85 1.00 1.06 1.12 1.19 1.12 0.95 0.77 0.62 0.46 0.42 0.51 0.69 0.76 0.83 0.76 0.53 0.45 0.38 0.32 0.30 0.26 0.25 0.30 0.40 0.58
0.14 0.18 0.20 0.18 0.21 0.41 0.79 0.89 0.57 0.30 0.24 0.23 0.24 0.25 0.25 0.33 0.47 0.51 0.61 0.73 0.88 1.04 1.18 1.18 1.11 0.84 0.60 0.50 0.61 0.78 0.85 0.92 0.84 0.71 0.72 0.70 0.56 0.44 0.36 0.35 0.39 0.41 0.50
0.12 0.13 0.12 0.08 0.09 0.22 0.59 0.77 0.50 0.23 0.16 0.16 0.18 0.17 0.15 0.20 0.35 0.46 0.56 0.56 0.57 0.73 0.98 1.16 1.26 1.08 0.83 0.73 0.86 1.04 1.15 1.14 0.99 0.92 0.96 0.99 0.76 0.61 0.55 0.50 0.48 0.44 0.45
0.09 0.12 0.10 0.06 0.04 0.09 0.42 0.76 0.57 0.23 0.15 0.14 0.15 0.16 0.15 0.14 0.31 0.46 0.49 0.43 0.39 0.49 0.63 0.89 1.08 1.12 1.06 1.04 1.11 1.33 1.43 1.47 1.36 1.14 1.11 1.16 1.01 0.79 0.73 0.73 0.66 0.54 0.46
0.05 0.07 0.07 0.05 0.03 0.05 0.24 0.67 0.72 0.31 0.19 0.14 0.13 0.13 0.20 0.26 0.35 0.41 0.40 0.41 0.45 0.42 0.41 0.47 0.55 0.64 0.70 0.73 0.92 1.17 1.30 1.42 1.44 1.46 1.27 1.21 1.24 1.17 1.19 0.97 0.77 0.56 0.46